Date String (YYYY-MM-DD hh:mm:ss) UTC,Instrument flags,absolute air pressure of the measurement (hPa),sample flow rate (lpm),inlet stack bypass flow (lpm),air temperature of the measurement (°C),ambient temperature measured by the external sensor (°C),aerosol sample conditioner tube jacket temperature (°C),OPC LED temperature (°C),internal box temperature (°C),relative humidity of the measurement (%),span deviation,mass concentration of particles derived from Lorenz-Mie calculation of OPC scattering (μg/m³),mass concentration of particles derived from Lorenz-Mie calculation of OPC scattering (μg/m³),mass concentration of particles derived from Lorenz-Mie calculation of OPC scattering (μg/m³)
DateTimeUTC,F1_M11,P_M11,Q1_M11,Q2_M11,T1_M11,T2_M11,T3_M11,T4_M11,T5_M11,U1_M11,ZSPAN_M11,X2_M11,X0_M11,X1_M11
2024-01-21 09:00:00,SystemResetWarning,0821.9,5.00,000.00,018.8,018.2,000.0,027.2,020.1,17.2,0000.0,0003.47,0004.96,0003.27
2024-01-21 09:01:00,SystemResetWarning,0821.6,5.00,000.00,018.8,018.2,000.0,027.2,020.0,17.4,0000.0,0003.53,0005.19,0003.32
2024-01-21 09:02:00,SystemResetWarning,0821.5,5.00,000.00,018.8,018.2,000.0,027.2,020.0,17.4,0000.0,0003.57,0005.53,0003.36
2024-01-21 09:03:00,SystemResetWarning,0821.9,5.00,000.00,018.8,018.2,000.0,027.2,020.0,17.3,0000.0,0003.56,0005.43,0003.37
2024-01-21 09:04:00,SystemResetWarning,0821.6,5.00,000.00,018.8,018.2,000.0,027.2,020.0,17.2,0000.0,0003.53,0005.35,0003.36
2024-01-21 09:05:00,SystemResetWarning,0821.6,5.01,000.00,018.8,018.2,000.0,027.2,020.0,17.1,0000.0,0003.57,0005.50,0003.39
2024-01-21 09:06:00,SystemResetWarning,0821.7,5.00,000.00,018.8,018.2,000.0,027.2,020.0,16.9,0000.0,0003.58,0005.52,0003.40
2024-01-21 09:07:00,SystemResetWarning,0821.8,4.99,000.00,018.8,018.2,000.0,027.2,020.0,16.9,0000.0,0003.60,0005.45,0003.43
2024-01-21 09:08:00,SystemResetWarning,0821.6,5.00,000.00,018.8,018.2,000.0,027.2,020.0,17.0,0000.0,0003.61,0005.41,0003.45
2024-01-21 09:09:00,SystemResetWarning,0821.6,5.00,000.00,018.8,018.2,000.0,027.2,020.0,17.0,0000.0,0003.59,0005.41,0003.42
2024-01-21 09:10:00,SystemResetWarning,0821.6,5.01,000.00,018.8,018.2,000.0,027.2,020.1,17.1,0000.0,0003.56,0005.57,0003.39
2024-01-21 09:11:00,SystemResetWarning,0821.7,5.00,000.00,018.8,018.2,000.0,027.2,020.0,17.1,0000.0,0003.48,0005.53,0003.32
2024-01-21 09:12:00,SystemResetWarning,0821.7,4.99,000.00,018.8,018.2,000.0,027.2,020.0,16.9,0000.0,0003.34,0005.14,0003.18
2024-01-21 09:13:00,SystemResetWarning,0821.6,4.99,000.00,018.8,018.1,000.0,027.2,020.0,16.8,0000.0,0003.19,0004.51,0003.01
2024-01-21 09:14:00,SystemResetWarning,0821.6,5.01,000.00,018.8,018.1,000.0,027.2,020.0,16.7,0000.0,0003.08,0004.33,0002.80
2024-01-21 09:15:00,SystemResetWarning,0821.7,5.01,000.00,018.8,018.1,000.0,027.2,020.0,16.7,0000.0,0002.86,0004.04,0002.57
2024-01-21 09:16:00,SystemResetWarning,0821.6,4.99,000.00,018.8,018.1,000.0,027.2,020.0,16.7,0000.0,0002.59,0003.60,0002.33
2024-01-21 09:17:00,SystemResetWarning,0821.7,4.99,000.00,018.8,018.1,000.0,027.2,020.0,16.8,0000.0,0002.43,0003.47,0002.17
2024-01-21 09:18:00,SystemResetWarning,0821.6,5.00,000.00,018.8,018.1,000.0,027.2,020.0,16.9,0000.0,0002.30,0003.35,0002.04
2024-01-21 09:19:00,SystemResetWarning,0821.9,5.00,000.00,018.8,018.1,000.0,027.2,020.0,17.0,0000.0,0002.19,0003.22,0001.94
2024-01-21 09:20:00,SystemResetWarning,0821.8,5.00,000.00,018.8,018.1,000.0,027.2,020.0,17.0,0000.0,0002.20,0003.18,0001.99
2024-01-21 09:21:00,SystemResetWarning,0821.7,5.00,000.00,018.8,018.1,000.0,027.2,020.0,17.0,0000.0,0002.26,0002.97,0002.08
2024-01-21 09:22:00,SystemResetWarning,0821.8,5.00,000.00,018.8,018.0,000.0,027.2,020.0,16.9,0000.0,0002.28,0002.82,0002.08
2024-01-21 09:23:00,SystemResetWarning,0821.6,5.00,000.00,018.8,018.0,000.0,027.2,020.0,16.9,0000.0,0002.79,0003.40,0002.60
2024-01-21 09:24:00,SystemResetWarning,0821.3,5.01,000.00,018.8,018.0,000.0,027.2,020.0,16.9,0000.0,0003.38,0004.27,0003.26
2024-01-21 09:25:00,SystemResetWarning,0821.4,5.01,000.00,018.8,018.0,000.0,027.2,020.0,17.0,0000.0,0003.95,0005.70,0003.81
2024-01-21 09:26:00,SystemResetWarning,0821.9,5.00,000.00,018.8,018.0,000.0,027.2,020.0,17.7,0000.0,0004.66,0007.32,0004.50
2024-01-21 09:27:00,SystemResetWarning,0821.7,5.00,000.00,018.8,018.0,000.0,027.2,020.0,17.4,0000.0,0005.56,0008.52,0005.35
2024-01-21 09:28:00,SystemResetWarning,0821.6,5.00,000.00,018.8,018.0,000.0,027.2,020.0,17.3,0000.0,0006.44,0009.56,0006.18
2024-01-21 09:29:00,SystemResetWarning,0821.5,4.99,000.00,018.8,018.0,000.0,027.2,020.0,17.0,0000.0,0007.08,0010.31,0006.79
2024-01-21 09:30:00,SystemResetWarning,0821.5,4.98,000.00,018.8,018.0,000.0,027.2,020.0,16.9,0001.6,0007.52,0010.82,0007.20
2024-01-21 09:31:00,SystemResetWarning,0821.9,5.00,000.00,018.8,018.0,000.0,027.2,020.0,16.9,0002.3,0007.85,0011.20,0007.50
2024-01-21 09:32:00,SystemResetWarning,0821.8,5.01,000.00,018.8,018.0,000.0,027.2,020.0,16.8,0002.2,0008.23,0011.67,0007.85
2024-01-21 09:33:00,SystemResetWarning,0821.9,5.00,000.00,018.8,017.9,000.0,027.2,020.0,16.7,0002.4,0008.77,0012.28,0008.36
2024-01-21 09:34:00,SystemResetWarning,0822.0,5.01,000.00,018.8,017.9,000.0,027.2,020.0,16.8,0002.5,0009.37,0012.96,0008.94
2024-01-21 09:35:00,SystemResetWarning,0821.6,5.00,000.00,018.8,017.9,000.0,027.2,020.0,16.7,0002.4,0009.56,0013.19,0009.13
2024-01-21 09:36:00,SystemResetWarning,0821.5,4.98,000.00,018.8,017.9,000.0,027.2,020.0,16.7,0002.5,0009.81,0013.39,0009.35
2024-01-21 09:37:00,SystemResetWarning,0821.3,5.00,000.00,018.8,017.9,000.0,027.2,020.1,16.8,0002.6,0009.93,0013.29,0009.47
2024-01-21 09:38:00,SystemResetWarning,0821.9,5.00,000.00,018.8,017.9,000.0,027.2,020.1,16.6,0002.3,0009.92,0013.15,0009.46
2024-01-21 09:39:00,SystemResetWarning,0821.9,5.01,000.00,018.8,017.9,000.0,027.2,020.1,17.1,0000.2,0009.66,0012.79,0009.22
2024-01-21 09:40:00,SystemResetWarning,0821.8,5.01,000.00,018.8,018.0,000.0,027.2,020.0,17.1,0000.0,0009.62,0012.99,0009.20
2024-01-21 09:41:00,SystemResetWarning,0821.7,4.99,000.00,018.8,018.0,000.0,027.2,020.0,17.4,0000.0,0009.79,0013.60,0009.39
2024-01-21 09:42:00,SystemResetWarning,0821.9,4.99,000.00,018.8,018.0,000.0,027.2,020.0,17.7,0002.7,0010.22,0014.14,0009.79
2024-01-21 09:43:00,SystemResetWarning,0821.9,5.01,000.00,018.8,018.0,000.0,027.2,020.0,17.5,0002.6,0010.59,0014.55,0010.13
2024-01-21 09:44:00,SystemResetWarning,0821.8,5.01,000.00,018.8,018.0,000.0,027.2,020.0,17.5,0002.8,0010.87,0014.82,0010.41
2024-01-21 09:45:00,SystemResetWarning,0821.9,4.99,000.00,018.8,018.0,000.0,027.2,020.0,17.7,0002.8,0010.53,0014.63,0010.11
2024-01-21 09:46:00,SystemResetWarning,0822.0,4.99,000.00,018.8,018.0,000.0,027.2,020.0,17.8,0003.0,0009.76,0013.76,0009.36
2024-01-21 09:47:00,SystemResetWarning,0821.7,4.99,000.00,018.8,018.0,000.0,027.2,020.0,17.9,0001.9,0008.87,0012.74,0008.51
2024-01-21 09:48:00,SystemResetWarning,0821.6,5.00,000.00,018.8,018.0,000.0,027.2,020.0,17.4,0000.0,0008.10,0011.90,0007.78
2024-01-21 09:49:00,SystemResetWarning,0821.8,5.00,000.00,018.8,018.0,000.0,027.2,020.0,17.4,0000.0,0007.24,0010.93,0006.97
2024-01-21 09:50:00,SystemResetWarning,0822.0,5.00,000.00,018.8,018.0,000.0,027.2,020.0,17.6,0000.0,0006.47,0010.04,0006.23
2024-01-21 09:51:00,SystemResetWarning,0821.6,5.01,000.00,018.8,018.0,000.0,027.2,020.0,17.9,0000.0,0005.77,0009.04,0005.56
2024-01-21 09:52:00,SystemResetWarning,0821.4,5.00,000.00,018.8,017.9,000.0,027.2,020.0,17.8,0000.0,0005.01,0007.66,0004.82
2024-01-21 09:53:00,SystemResetWarning,0821.3,5.00,000.00,018.8,017.9,000.0,027.2,020.0,17.8,0000.0,0004.16,0006.48,0004.01
2024-01-21 09:54:00,SystemResetWarning,0821.3,4.99,000.00,018.8,017.9,000.0,027.2,020.0,17.9,0000.0,0003.27,0005.61,0003.14
2024-01-21 09:55:00,SystemResetWarning,0821.3,4.99,000.00,018.8,017.9,000.0,027.1,020.0,18.0,0000.0,0001.91,0003.92,0001.76
2024-01-21 09:56:00,SystemResetWarning,0821.3,5.00,000.00,018.8,018.0,000.0,027.1,020.0,18.0,0000.0,0000.74,0002.33,0000.62
2024-01-21 09:57:00,SystemResetWarning,0821.3,5.00,000.00,018.8,018.0,000.0,027.1,020.1,17.6,0000.0,0000.63,0002.13,0000.51
2024-01-21 09:58:00,SystemResetWarning,0821.3,5.01,000.00,018.8,018.0,000.0,027.1,020.1,17.6,0000.0,0000.61,0002.09,0000.51
2024-01-21 09:59:00,SystemResetWarning,0821.3,5.01,000.00,018.8,018.0,000.0,027.1,020.0,17.5,0000.0,0000.59,0002.05,0000.50
